Location: Zagreb
(45.8000°N, 16.0000°E)
Time: 02:44:46
(UTC+02:00)

Transit 2A Rocket - Pass Details

Date: 01 February 2022
Orbit: 592 x 909 km, 66.7° (Epoch: 26 May)

Event Time Altitude Azimuth Distance (km) Brightness Sun altitude
Rises 22:59:39 0° 328° (NNW) 3,492 - -57.6°
Reaches altitude 10° 23:03:45 10° 355° (N) 2,497 - -58.0°
Maximum altitude 23:06:26 13° 23° (NNE) 2,228 - -58.2°
Drops below altitude 10° 23:09:02 10° 51° (NE) 2,404 - -58.5°
Sets 23:12:49 0° 78° (ENE) 3,255 - -58.8°
